GW4343 Weather Reports


time (UTC)temp
C
wind
direction
speed
KPH
gust
KPH
rain 1hr
cm
rain 24hr
cm
rain mn
cm
humidity
%
barometer
mb
20260901104527 10 22 1.6 3.2 0.00 0.58 0.15 97 1026.7
20260901104006 10 20 0.0 3.2 0.00 0.58 0.15 97 1026.6
20260901103518 10 20 1.6 3.2 0.00 0.58 0.15 97 1026.6
20260901103035 10 335 0.0 3.2 0.00 0.58 0.15 97 1026.7
20260901102515 10 16 0.0 3.2 0.00 0.58 0.15 97 1026.7
20260901102016 10 23 1.6 3.2 0.00 0.58 0.15 97 1026.7
20260901101517 10 38 0.0 0.0 0.00 0.58 0.15 97 1026.6
20260901101013 10 38 0.0 0.0 0.00 0.58 0.15 97 1026.6
20260901100510 10 38 0.0 0.0 0.00 0.58 0.15 97 1026.5
20260901100013 10 38 0.0 0.0 0.00 0.58 0.15 97 1026.6
20260901095514 10 38 0.0 0.0 0.00 0.58 0.15 97 1026.6
20260901095009 10 38 0.0 1.6 0.00 0.58 0.15 97 1026.6
20260901094534 10 39 0.0 1.6 0.00 0.58 0.15 97 1026.6
20260901094013 10 39 0.0 3.2 0.00 0.58 0.15 97 1026.6
20260901093514 10 39 0.0 3.2 0.00 0.58 0.15 97 1026.6
20260901093032 9 90 0.0 1.6 0.00 0.58 0.15 97 1026.7
20260901092513 9 144 0.0 0.0 0.00 0.58 0.15 97 1026.7
20260901092012 9 144 0.0 0.0 0.00 0.58 0.15 97 1026.7
20260901091527 9 145 0.0 0.0 0.00 0.58 0.15 97 1026.8
20260901091009 9 145 0.0 0.0 0.00 0.58 0.15 97 1026.8
20260901090516 9 145 0.0 0.0 0.00 0.58 0.15 96 1026.7
20260901090028 9 145 0.0 0.0 0.00 0.58 0.15 96 1026.7
20260901085507 9 145 0.0 0.0 0.00 0.58 0.15 96 1026.7
20260901085015 9 145 0.0 0.0 0.00 0.58 0.15 96 1026.8
20260901084527 9 145 0.0 0.0 0.00 0.58 0.15 96 1026.8
20260901084013 9 145 0.0 0.0 0.00 0.58 0.15 96 1026.8
20260901083515 9 145 0.0 0.0 0.00 0.58 0.15 96 1026.9
20260901083020 9 145 0.0 0.0 0.00 0.58 0.15 96 1026.9
20260901082515 9 145 0.0 0.0 0.00 0.58 0.15 96 1026.9
20260901082013 9 145 0.0 0.0 0.00 0.58 0.15 96 1026.9
20260901081530 9 145 0.0 0.0 0.00 0.58 0.15 96 1027.1
20260901081018 9 145 0.0 0.0 0.00 0.58 0.15 96 1027.1
20260901080512 9 145 0.0 0.0 0.00 0.58 0.15 96 1027.1
20260901080031 9 145 0.0 0.0 0.00 0.58 0.15 96 1027.1
20260901075515 9 145 0.0 0.0 0.00 0.58 0.15 96 1027.1
20260901075012 9 145 0.0 0.0 0.00 0.58 0.15 96 1027.3
20260901074534 9 145 0.0 0.0 0.00 0.58 0.15 96 1027.4
20260901074014 9 145 0.0 0.0 0.00 0.58 0.15 96 1027.5
20260901073517 9 145 0.0 0.0 0.00 0.58 0.15 96 1027.4
20260901073035 9 145 0.0 0.0 0.00 0.58 0.15 96 1027.5
20260901072513 9 146 0.0 0.0 0.03 0.58 0.15 95 1027.5
20260901072015 9 144 0.0 0.0 0.03 0.58 0.15 96 1027.6
20260901071527 9 144 0.0 0.0 0.05 0.58 0.15 96 1027.7
20260901071009 9 212 0.0 0.0 0.05 0.58 0.15 96 1027.6
20260901070503 9 212 0.0 0.0 0.13 0.58 0.15 96 1027.7
20260901070010 9 212 0.0 0.0 0.15 0.58 0.15 96 1027.7
20260901065508 9 214 0.0 0.0 0.18 0.58 0.15 95 1027.8
20260901065003 9 214 0.0 0.0 0.25 0.58 0.15 95 1027.8
20260901064527 10 214 0.0 0.0 0.28 0.58 0.15 95 1027.9
20260901064003 10 214 0.0 0.0 0.28 0.58 0.15 95 1027.9
20260901063504 10 214 0.0 0.0 0.28 0.58 0.15 95 1028.0
20260901063026 10 214 0.0 0.0 0.28 0.58 0.15 95 1028.1
20260901062504 10 214 0.0 0.0 0.25 0.56 0.13 95 1028.0
20260901062013 10 214 0.0 1.6 0.25 0.56 0.13 95 1028.1
20260901061520 10 214 0.0 1.6 0.23 0.53 0.10 95 1028.0
20260901061003 10 214 0.0 1.6 0.25 0.53 0.10 95 1027.9
20260901060510 10 218 0.0 1.6 0.18 0.46 0.03 95 1028.0
20260901060017 10 197 0.0 1.6 0.18 0.43 0.00 95 1028.0
20260901055503 10 225 0.0 1.6 0.18 0.41 0.41 95 1027.9
20260901055014 10 207 0.0 1.6 0.10 0.33 0.33 95 1028.1
20260901054514 10 207 0.0 0.0 0.08 0.30 0.30 95 1028.1
20260901054014 10 207 0.0 0.0 0.08 0.30 0.30 95 1028.0
20260901053508 10 207 0.0 0.0 0.08 0.30 0.30 95 1028.1
20260901053005 10 207 0.0 0.0 0.08 0.30 0.30 95 1028.1
20260901052511 10 207 0.0 0.0 0.08 0.30 0.30 95 1028.0
20260901052004 10 207 0.0 0.0 0.08 0.30 0.30 95 1028.1
20260901051526 10 207 0.0 0.0 0.08 0.30 0.30 95 1028.1
20260901051011 10 207 0.0 0.0 0.05 0.28 0.28 95 1028.2
20260901050505 10 207 0.0 0.0 0.05 0.28 0.28 95 1028.1
20260901050028 10 207 0.0 0.0 0.03 0.25 0.25 95 1028.2
20260901045508 10 207 0.0 0.0 0.00 0.23 0.23 95 1028.2
20260901045004 10 207 0.0 0.0 0.00 0.23 0.23 95 1028.2
20260901044525 10 207 0.0 1.6 0.00 0.23 0.23 95 1028.2
20260901044004 10 207 0.0 1.6 0.00 0.23 0.23 95 1028.3
20260901043513 10 207 0.0 1.6 0.03 0.23 0.23 95 1028.3
20260901043019 10 207 0.0 1.6 0.03 0.23 0.23 95 1028.4
20260901042504 10 207 0.0 1.6 0.03 0.23 0.23 95 1028.4
20260901042012 10 205 1.6 1.6 0.03 0.23 0.23 95 1028.4
20260901041515 10 151 0.0 1.6 0.05 0.23 0.23 95 1028.3
20260901041014 10 198 0.0 0.0 0.05 0.23 0.23 95 1028.4
20260901040511 10 198 0.0 0.0 0.05 0.23 0.23 95 1028.5
20260901040012 10 198 0.0 0.0 0.05 0.23 0.23 95 1028.4
20260901035513 10 198 0.0 0.0 0.05 0.23 0.23 95 1028.5
20260901035008 10 198 0.0 0.0 0.05 0.23 0.23 95 1028.6
20260901034521 11 198 0.0 0.0 0.08 0.23 0.23 95 1028.8
20260901034009 11 198 0.0 0.0 0.08 0.23 0.23 95 1028.7
20260901033505 11 198 0.0 0.0 0.05 0.20 0.20 95 1028.7
20260901033033 11 199 0.0 0.0 0.05 0.20 0.20 95 1028.7
20260901032512 11 199 0.0 0.0 0.05 0.20 0.20 95 1028.7
20260901032004 11 199 0.0 0.0 0.05 0.20 0.20 94 1028.6
20260901031533 11 198 0.0 0.0 0.03 0.18 0.18 94 1028.7
20260901031009 11 198 0.0 0.0 0.03 0.18 0.18 94 1028.7
20260901030505 11 198 0.0 0.0 0.03 0.18 0.18 94 1028.6
20260901030030 11 198 0.0 0.0 0.03 0.18 0.18 94 1028.7
20260901025505 11 198 0.0 0.0 0.03 0.18 0.18 94 1028.7
20260901025016 11 198 0.0 0.0 0.03 0.18 0.18 94 1028.6
20260901024525 11 198 0.0 0.0 0.00 0.15 0.15 93 1028.6
20260901024006 11 199 0.0 3.2 0.00 0.15 0.15 93 1028.5
20260901023511 11 198 0.0 3.2 0.00 0.15 0.15 93 1028.5
20260901023032 11 221 1.6 3.2 0.00 0.15 0.15 93 1028.5
20260901022515 11 226 0.0 3.2 0.00 0.15 0.15 93 1028.4
20260901022013 11 201 0.0 3.2 0.00 0.15 0.15 93 1028.2
20260901021520 11 167 1.6 1.6 0.00 0.15 0.15 93 1028.2
20260901021017 11 118 0.0 1.6 0.00 0.15 0.15 92 1028.2
20260901020509 11 118 0.0 1.6 0.00 0.15 0.15 92 1028.2
20260901020012 11 118 0.0 1.6 0.03 0.15 0.15 92 1028.3
20260901015517 11 109 0.0 1.6 0.03 0.15 0.15 92 1028.3
20260901015007 11 144 1.6 3.2 0.05 0.15 0.15 92 1028.3
20260901014536 11 221 1.6 3.2 0.05 0.15 0.15 92 1028.2
20260901014012 11 134 0.0 0.0 0.08 0.15 0.15 92 1028.3
20260901013504 11 134 0.0 0.0 0.10 0.15 0.15 92 1028.2
20260901013031 11 133 0.0 0.0 0.13 0.15 0.15 91 1028.1
20260901012510 11 133 0.0 1.6 0.13 0.15 0.15 91 1028.0
20260901012018 11 133 0.0 4.8 0.13 0.15 0.15 90 1028.0
20260901011529 11 145 1.6 9.7 0.13 0.15 0.15 89 1027.9
20260901011009 12 127 1.6 9.7 0.13 0.15 0.15 88 1027.9
20260901010517 12 23 1.6 9.7 0.13 0.15 0.15 84 1027.9
20260901010026 12 203 4.8 9.7 0.10 0.13 0.13 83 1027.9
20260901005506 12 196 4.8 9.7 0.10 0.13 0.13 84 1028.0
20260901005018 12 197 1.6 6.4 0.08 0.10 0.10 82 1028.1
20260901004526 13 232 1.6 6.4 0.08 0.10 0.10 81 1028.2
20260901004018 13 111 1.6 6.4 0.05 0.08 0.08 80 1028.2
20260901003513 14 117 1.6 8.0 0.03 0.05 0.05 77 1028.4
20260901003016 14 217 1.6 14.5 0.00 0.03 0.03 75 1028.3
20260901002517 15 113 3.2 14.5 0.00 0.03 0.03 71 1028.2
20260901002013 15 153 3.2 9.7 0.00 0.03 0.03 70 1027.8
20260901001514 15 147 3.2 9.7 0.00 0.03 0.03 67 1027.6
20260901001018 15 122 0.0 4.8 0.00 0.03 0.03 66 1027.7
20260901000509 16 293 0.0 4.8 0.00 0.03 0.03 68 1027.9
20260901000032 16 333 1.6 4.8 0.00 0.03 0.03 64 1027.6
20260831235515 16 341 0.0 3.2 0.00 0.03 0.03 62 1027.8
20260831235009 16 127 0.0 1.6 0.00 0.03 0.03 64 1027.7
20260831234531 16 218 0.0 6.4 0.00 0.03 0.03 63 1027.6
20260831234003 16 205 1.6 6.4 0.00 0.03 0.03 62 1027.6
20260831233508 16 178 1.6 4.8 0.00 0.03 0.03 65 1027.4
20260831233003 16 253 0.0 3.2 0.00 0.03 0.03 68 1027.3
20260831232511 17 253 0.0 3.2 0.00 0.03 0.03 64 1027.3
20260831232008 17 252 1.6 3.2 0.00 0.03 0.03 61 1027.4
20260831231504 17 209 0.0 1.6 0.00 0.03 0.03 62 1027.4
20260831231008 17 210 0.0 1.6 0.00 0.03 0.03 61 1027.4
20260831230505 17 210 0.0 3.2 0.00 0.03 0.03 57 1027.3
20260831230004 18 257 1.6 4.8 0.00 0.03 0.03 55 1027.4
20260831225505 18 215 1.6 6.4 0.00 0.03 0.03 56 1027.4
20260831225004 18 208 0.0 11.3 0.00 0.03 0.03 56 1027.3
20260831224523 18 286 3.2 14.5 0.00 0.03 0.03 54 1027.4
20260831224004 18 270 8.0 14.5 0.00 0.03 0.03 53 1027.2
20260831223503 18 286 4.8 12.9 0.00 0.03 0.03 51 1027.2
20260831223019 19 282 3.2 9.7 0.00 0.03 0.03 51 1027.2
20260831222506 19 253 3.2 9.7 0.00 0.03 0.03 49 1027.2
20260831222014 19 222 3.2 9.7 0.00 0.03 0.03 49 1027.1
20260831221516 19 269 3.2 14.5 0.00 0.03 0.03 50 1027.2
20260831221003 19 283 6.4 14.5 0.00 0.03 0.03 49 1027.1
20260831220511 20 306 8.0 12.9 0.00 0.03 0.03 48 1027.2
20260831220013 20 293 4.8 9.7 0.00 0.03 0.03 47 1027.1
20260831215503 20 278 6.4 12.9 0.00 0.03 0.03 47 1027.1
20260831215014 19 231 4.8 12.9 0.00 0.03 0.03 49 1027.3
20260831214508 20 273 8.0 12.9 0.00 0.03 0.03 47 1027.4
20260831214011 20 278 3.2 11.3 0.00 0.03 0.03 50 1027.4
20260831213508 19 286 4.8 14.5 0.00 0.03 0.03 51 1027.5
20260831213005 19 230 8.0 14.5 0.00 0.03 0.03 48 1027.5
20260831212512 19 280 3.2 11.3 0.00 0.03 0.03 50 1027.7
20260831212004 19 188 4.8 11.3 0.00 0.03 0.03 51 1027.8
20260831211530 19 282 6.4 16.1 0.00 0.03 0.03 51 1027.8
20260831211008 19 290 4.8 16.1 0.00 0.03 0.03 50 1027.8
20260831210504 19 282 8.0 11.3 0.00 0.03 0.03 48 1027.8
20260831210028 19 245 6.4 17.7 0.00 0.03 0.03 51 1027.9
20260831205508 19 211 9.7 17.7 0.00 0.03 0.03 50 1028.0
20260831205004 19 278 6.4 14.5 0.00 0.03 0.03 51 1028.0
20260831204520 19 278 8.0 16.1 0.00 0.03 0.03 52 1028.1
20260831204003 19 214 4.8 16.1 0.00 0.03 0.03 51 1028.2
20260831203514 18 289 6.4 16.1 0.00 0.03 0.03 52 1028.3
20260831203019 18 225 6.4 16.1 0.00 0.03 0.03 52 1028.3
20260831202503 19 328 8.0 14.5 0.00 0.03 0.03 50 1028.4
20260831202015 19 294 6.4 14.5 0.00 0.03 0.03 53 1028.6
20260831201516 19 270 6.4 14.5 0.00 0.03 0.03 53 1028.7
20260831201004 18 284 8.0 14.5 0.00 0.03 0.03 52 1028.7
20260831200509 18 286 6.4 14.5 0.00 0.03 0.03 52 1028.8
20260831200023 19 280 8.0 11.3 0.00 0.03 0.03 53 1028.9
20260831195516 19 290 6.4 11.3 0.00 0.03 0.03 52 1029.0
20260831195011 18 217 4.8 9.7 0.00 0.03 0.03 53 1029.1
20260831194510 18 292 4.8 8.0 0.00 0.03 0.03 53 1029.1
20260831194012 18 1 1.6 12.9 0.00 0.05 0.03 57 1029.1
20260831193510 18 28 4.8 12.9 0.00 0.05 0.03 56 1029.1
20260831193037 18 14 3.2 14.5 0.00 0.08 0.03 60 1029.1
20260831192509 17 184 6.4 14.5 0.00 0.08 0.03 60 1029.1
20260831192008 17 37 3.2 11.3 0.00 0.10 0.03 58 1029.1
20260831191533 17 273 1.6 9.7 0.00 0.10 0.03 59 1029.1
20260831191007 17 3 4.8 9.7 0.00 0.10 0.03 61 1029.2
20260831190503 17 34 3.2 8.0 0.00 0.10 0.03 60 1029.3
20260831190026 17 167 1.6 11.3 0.00 0.10 0.03 61 1029.4
20260831185509 17 196 4.8 14.5 0.00 0.13 0.03 60 1029.4
20260831185017 17 137 4.8 14.5 0.00 0.13 0.03 62 1029.4
20260831184525 17 138 3.2 12.9 0.00 0.13 0.03 62 1029.5
20260831184004 16 121 3.2 12.9 0.00 0.13 0.03 64 1029.5
20260831183516 16 217 4.8 14.5 0.00 0.13 0.03 62 1029.6
20260831183019 16 131 4.8 14.5 0.00 0.13 0.03 61 1029.8
20260831182515 16 247 0.0 9.7 0.00 0.13 0.03 63 1029.8
20260831182014 16 227 1.6 9.7 0.00 0.13 0.03 63 1029.8
20260831181519 16 186 1.6 9.7 0.00 0.13 0.03 64 1029.8
20260831181015 16 125 3.2 9.7 0.00 0.13 0.03 63 1029.8
20260831180514 16 220 1.6 12.9 0.00 0.13 0.03 64 1029.9
20260831180024 16 218 4.8 12.9 0.00 0.15 0.03 64 1029.8
20260831175512 16 191 6.4 11.3 0.00 0.15 0.03 63 1029.9
20260831175010 16 48 1.6 6.4 0.00 0.15 0.03 66 1029.8
20260831174532 15 79 1.6 6.4 0.00 0.15 0.03 66 1029.8
20260831174012 15 262 1.6 8.0 0.00 0.15 0.03 65 1029.8
20260831173508 15 205 3.2 8.0 0.00 0.15 0.03 66 1029.8
20260831173030 15 37 4.8 9.7 0.00 0.15 0.03 66 1030.0
20260831172511 15 131 4.8 9.7 0.00 0.15 0.03 65 1030.0
20260831172008 15 35 3.2 6.4 0.00 0.15 0.03 67 1029.9
20260831171528 15 143 1.6 6.4 0.00 0.15 0.03 64 1029.9
20260831171009 15 232 0.0 4.8 0.00 0.15 0.03 66 1029.9
20260831170516 15 279 1.6 8.0 0.00 0.15 0.03 65 1030.0
20260831170028 15 59 1.6 8.0 0.00 0.15 0.03 65 1029.8
20260831165507 15 108 0.0 6.4 0.00 0.15 0.03 67 1029.8
20260831165014 15 273 1.6 6.4 0.00 0.15 0.03 66 1029.6
20260831164538 14 232 3.2 11.3 0.00 0.15 0.03 66 1029.8
20260831164018 14 54 1.6 11.3 0.00 0.15 0.03 66 1029.8
20260831163515 14 132 3.2 11.3 0.00 0.15 0.03 65 1029.7
20260831163023 14 139 0.0 6.4 0.00 0.18 0.03 66 1029.7
20260831162515 14 214 3.2 6.4 0.00 0.20 0.03 64 1029.6
20260831162014 14 75 0.0 8.0 0.00 0.20 0.03 67 1029.6
20260831161515 13 37 0.0 8.0 0.00 0.20 0.03 69 1029.6
20260831161013 13 325 1.6 6.4 0.00 0.20 0.03 69 1029.6
20260831160510 13 342 1.6 9.7 0.00 0.20 0.03 72 1029.6
20260831160031 12 322 4.8 9.7 0.00 0.20 0.03 73 1029.5
20260831155514 12 202 1.6 6.4 0.00 0.20 0.03 75 1029.6
20260831155010 12 9 3.2 6.4 0.00 0.20 0.03 80 1029.6
20260831154603 11 44 3.2 4.8 0.00 0.20 0.03 80 1029.5
20260831154015 11 55 0.0 1.6 0.00 0.20 0.03 81 1029.5
20260831153520 11 55 1.6 1.6 0.00 0.20 0.03 81 1029.5
20260831153031 11 72 0.0 1.6 0.00 0.20 0.03 82 1029.4
20260831152515 10 79 0.0 1.6 0.00 0.20 0.03 85 1029.4
20260831152018 10 34 0.0 1.6 0.00 0.20 0.03 85 1029.4
20260831151530 9 34 0.0 3.2 0.00 0.20 0.03 86 1029.6
20260831151007 9 29 0.0 3.2 0.00 0.20 0.03 88 1029.6
20260831150517 8 38 1.6 6.4 0.00 0.20 0.03 88 1029.8
20260831150025 8 357 1.6 6.4 0.00 0.20 0.03 90 1029.6
20260831145519 8 344 1.6 4.8 0.00 0.20 0.03 93 1029.5
20260831145014 8 347 0.0 3.2 0.00 0.20 0.03 95 1029.4
20260831144524 7 34 1.6 3.2 0.00 0.20 0.03 96 1029.5
20260831144005 7 247 0.0 0.0 0.03 0.20 0.03 97 1029.3
20260831143504 7 237 0.0 0.0 0.03 0.20 0.03 97 1029.3
20260831143021 6 237 0.0 0.0 0.03 0.20 0.03 97 1029.3
20260831142504 6 237 0.0 0.0 0.03 0.20 0.03 97 1029.1
20260831142012 6 237 0.0 0.0 0.03 0.20 0.03 97 1029.1
20260831141513 6 237 0.0 0.0 0.03 0.20 0.03 97 1029.0
20260831141003 5 237 0.0 0.0 0.03 0.20 0.03 97 1028.9
20260831140511 5 237 0.0 0.0 0.03 0.20 0.03 97 1029.0
20260831140012 5 237 0.0 0.0 0.03 0.20 0.03 96 1028.8
20260831135503 5 238 0.0 0.0 0.03 0.20 0.03 96 1028.7
20260831135008 5 238 0.0 0.0 0.03 0.20 0.03 96 1028.6
20260831134508 5 238 0.0 0.0 0.03 0.20 0.03 96 1028.7
20260831134012 5 238 0.0 0.0 0.00 0.20 0.00 96 1028.6
20260831133509 5 236 0.0 1.6 0.00 0.20 0.00 96 1028.7
20260831133008 4 236 0.0 1.6 0.00 0.20 0.00 96 1028.7
20260831132509 4 236 0.0 1.6 0.00 0.20 0.00 96 1028.6
20260831132004 4 149 0.0 1.6 0.00 0.20 0.00 97 1028.6
20260831131504 4 149 0.0 3.2 0.00 0.20 0.00 97 1028.6
20260831131007 4 139 0.0 3.2 0.00 0.23 0.00 96 1028.5
20260831130503 3 221 0.0 3.2 0.00 0.23 0.00 96 1028.5
20260831130026 3 251 0.0 3.2 0.00 0.28 0.00 96 1028.4
20260831125506 3 260 0.0 1.6 0.00 0.33 0.00 96 1028.4
20260831125006 3 236 0.0 1.6 0.00 0.38 0.00 95 1028.4
20260831124522 3 236 0.0 1.6 0.00 0.43 0.00 95 1028.4
20260831124003 3 236 0.0 1.6 0.00 0.46 0.00 96 1028.4
20260831123515 3 236 0.0 1.6 0.00 0.46 0.00 95 1028.3
20260831123017 4 171 0.0 1.6 0.00 0.48 0.00 96 1028.2
20260831122503 4 171 0.0 3.2 0.00 0.48 0.00 96 1028.2
20260831122013 4 171 0.0 4.8 0.00 0.53 0.00 96 1028.1
20260831121514 4 160 1.6 4.8 0.00 0.61 0.00 96 1028.1
20260831121003 3 146 1.6 4.8 0.00 0.64 0.00 96 1028.0
20260831120511 3 151 0.0 3.2 0.00 0.64 0.00 96 1028.1
20260831120030 3 223 1.6 3.2 0.00 0.64 0.00 96 1028.1
20260831115512 3 240 0.0 3.2 0.00 0.64 0.00 96 1028.0
20260831115009 3 214 0.0 3.2 0.00 0.64 0.00 96 1028.0
20260831114523 3 214 1.6 3.2 0.00 0.64 0.00 96 1028.1
20260831114012 3 169 0.0 1.6 0.00 0.64 0.00 95 1028.1
20260831113508 3 167 0.0 1.6 0.00 0.64 0.00 95 1028.2
20260831113032 3 251 0.0 3.2 0.00 0.64 0.00 95 1028.2
20260831112510 3 252 0.0 3.2 0.00 0.64 0.00 95 1028.2
20260831112006 3 229 0.0 3.2 0.00 0.64 0.00 95 1028.2
20260831111530 3 237 0.0 1.6 0.00 0.64 0.00 96 1028.2
20260831111011 3 236 1.6 1.6 0.00 0.64 0.00 95 1028.2
20260831110509 3 247 0.0 1.6 0.00 0.64 0.00 95 1028.1
20260831110025 3 246 1.6 3.2 0.00 0.64 0.00 95 1028.1
20260831105508 4 136 0.0 3.2 0.00 0.64 0.00 95 1028.1
20260831105015 3 220 0.0 1.6 0.00 0.64 0.00 95 1028.1